JAL923 RJTT-ROAH

Flight info

Callsign JAL923
Flight time 2h 28m
Altitude 32000
Route LAXAS4 LAXAS Y56 TOHME Y54 KOHWA Y12 AYANO Y128 LAXEL Y52 TONAR Y525 IHEYA IHEYAN
Aircraft B738/M-SDE2E3FGHIRWXY/LB1

Departure

Time 2026-04-22 10:36
Airport Tokyo Haneda International Airport (RJTT)

Arrival

Time 2026-04-22 13:04
Airport Naha International Airport (ROAH)
Time Latitude Longitude Altitude Speed Heading
2026-04-22 10:14 35.54889 139.78242 26 ft 0 kts 102°
2026-04-22 10:27 35.54889 139.78238 23 ft 3 kts 102°
2026-04-22 10:28 35.54895 139.78206 23 ft 4 kts 102°
2026-04-22 10:28 35.54901 139.78173 24 ft 4 kts 102°
2026-04-22 10:28 35.54905 139.78148 25 ft 4 kts 90°
2026-04-22 10:28 35.54898 139.78120 25 ft 4 kts 41°
2026-04-22 10:29 35.54876 139.78102 25 ft 4 kts 18°
2026-04-22 10:29 35.54861 139.78099 23 ft 4 kts 343°
2026-04-22 10:29 35.54841 139.78111 23 ft 1 kts 330°
2026-04-22 10:29 35.54840 139.78111 23 ft 1 kts 330°
2026-04-22 10:30 35.54841 139.78111 23 ft 0 kts 330°
2026-04-22 10:31 35.54842 139.78110 22 ft 1 kts 330°
2026-04-22 10:31 35.54876 139.78086 21 ft 10 kts 330°
2026-04-22 10:31 35.54921 139.78008 21 ft 13 kts 259°
2026-04-22 10:32 35.54940 139.77913 22 ft 13 kts 326°
2026-04-22 10:32 35.55016 139.77859 21 ft 14 kts 330°
2026-04-22 10:32 35.55114 139.77790 22 ft 17 kts 330°
2026-04-22 10:32 35.55215 139.77718 22 ft 17 kts 329°
2026-04-22 10:33 35.55312 139.77648 23 ft 16 kts 330°
2026-04-22 10:33 35.55405 139.77583 22 ft 15 kts 330°
2026-04-22 10:33 35.55495 139.77519 22 ft 15 kts 330°
2026-04-22 10:33 35.55582 139.77458 21 ft 14 kts 330°
2026-04-22 10:34 35.55665 139.77399 21 ft 13 kts 330°
2026-04-22 10:34 35.55737 139.77344 20 ft 11 kts 317°
2026-04-22 10:34 35.55745 139.77260 20 ft 11 kts 233°
2026-04-22 10:34 35.55687 139.77205 24 ft 10 kts 212°
2026-04-22 10:35 35.55624 139.77176 25 ft 10 kts 165°
2026-04-22 10:35 35.55560 139.77218 25 ft 14 kts 149°
2026-04-22 10:35 35.55286 139.77411 21 ft 82 kts 150°
2026-04-22 10:35 35.54585 139.77910 22 ft 145 kts 151°
2026-04-22 10:36 35.53665 139.78572 564 ft 158 kts 153°
2026-04-22 10:36 35.52721 139.79262 1309 ft 162 kts 155°
2026-04-22 10:36 35.51671 139.79985 1830 ft 185 kts 156°
2026-04-22 10:36 35.50477 139.80806 2099 ft 210 kts 156°
2026-04-22 10:37 35.49169 139.81728 2566 ft 225 kts 155°
2026-04-22 10:37 35.46200 139.83834 3674 ft 258 kts 154°
2026-04-22 10:37 35.44596 139.84891 4421 ft 265 kts 163°
2026-04-22 10:38 35.42782 139.85081 5116 ft 264 kts 196°
2026-04-22 10:38 35.41106 139.84174 5901 ft 266 kts 217°
2026-04-22 10:38 35.39624 139.82780 6724 ft 269 kts 221°
2026-04-22 10:38 35.38187 139.81354 7616 ft 268 kts 221°
2026-04-22 10:39 35.36728 139.79914 8480 ft 271 kts 221°
2026-04-22 10:39 35.35247 139.78464 9335 ft 273 kts 223°
2026-04-22 10:39 35.33988 139.76749 10217 ft 270 kts 236°
2026-04-22 10:39 35.32880 139.74810 10625 ft 289 kts 237°
2026-04-22 10:40 35.31692 139.72699 10828 ft 313 kts 237°
2026-04-22 10:40 35.30413 139.70446 11244 ft 326 kts 237°
2026-04-22 10:40 35.29103 139.68168 12033 ft 327 kts 236°
2026-04-22 10:40 35.27791 139.65910 12998 ft 324 kts 236°
2026-04-22 10:41 35.26479 139.63666 13894 ft 323 kts 236°
2026-04-22 10:41 35.25167 139.61430 14622 ft 325 kts 236°
2026-04-22 10:41 35.23834 139.59162 15258 ft 330 kts 236°
2026-04-22 10:41 35.22486 139.56878 15912 ft 332 kts 237°
2026-04-22 10:42 35.21127 139.54576 16582 ft 334 kts 237°
2026-04-22 10:42 35.19759 139.52261 17214 ft 337 kts 237°
2026-04-22 10:42 35.18377 139.49924 17794 ft 341 kts 238°
2026-04-22 10:42 35.16981 139.47565 18374 ft 344 kts 238°
2026-04-22 10:43 35.15575 139.45191 18872 ft 347 kts 238°
2026-04-22 10:43 35.14154 139.42794 19368 ft 349 kts 238°
2026-04-22 10:43 35.12721 139.40378 19810 ft 353 kts 238°
2026-04-22 10:43 35.11289 139.37965 20264 ft 357 kts 238°
2026-04-22 10:44 35.09826 139.35501 20751 ft 359 kts 238°
2026-04-22 10:44 35.08349 139.33016 21240 ft 362 kts 238°
2026-04-22 10:44 35.06864 139.30519 21701 ft 365 kts 239°
2026-04-22 10:44 35.05363 139.27998 22149 ft 368 kts 239°
2026-04-22 10:45 35.04020 139.25354 22586 ft 366 kts 247°
2026-04-22 10:45 35.02989 139.22498 23029 ft 366 kts 252°
2026-04-22 10:45 35.02272 139.19518 23456 ft 367 kts 260°
2026-04-22 10:45 35.01768 139.16451 23822 ft 369 kts 261°
2026-04-22 10:46 35.01281 139.13408 24184 ft 370 kts 261°
2026-04-22 10:46 35.00783 139.10322 24577 ft 371 kts 260°
2026-04-22 10:46 35.00275 139.07228 24954 ft 373 kts 260°
2026-04-22 10:46 34.99758 139.04117 25273 ft 375 kts 260°
2026-04-22 10:47 34.99235 139.00992 25646 ft 377 kts 260°
2026-04-22 10:47 34.98761 138.97844 26022 ft 377 kts 264°
2026-04-22 10:47 34.98562 138.94650 26441 ft 377 kts 267°
2026-04-22 10:47 34.98407 138.91475 26986 ft 373 kts 266°
2026-04-22 10:48 34.98253 138.88327 27467 ft 371 kts 266°
2026-04-22 10:48 34.98096 138.85187 27862 ft 371 kts 266°
2026-04-22 10:48 34.97934 138.82025 28254 ft 372 kts 266°
2026-04-22 10:48 34.97770 138.78884 28791 ft 369 kts 266°
2026-04-22 10:49 34.97477 138.75788 29353 ft 366 kts 262°
2026-04-22 10:49 34.97065 138.72775 29854 ft 364 kts 261°
2026-04-22 10:49 34.96627 138.69730 30279 ft 363 kts 261°
2026-04-22 10:49 34.96184 138.66696 30697 ft 361 kts 261°
2026-04-22 10:50 34.95746 138.63696 31102 ft 359 kts 261°
2026-04-22 10:50 34.95309 138.60697 31433 ft 359 kts 261°
2026-04-22 10:50 34.94873 138.57684 31751 ft 360 kts 261°
2026-04-22 10:50 34.94438 138.54672 32012 ft 361 kts 261°
2026-04-22 10:51 34.94005 138.51674 32004 ft 364 kts 261°
2026-04-22 10:51 34.93129 138.45612 32014 ft 360 kts 261°
2026-04-22 10:52 34.92264 138.39640 32033 ft 358 kts 261°
2026-04-22 10:52 34.91396 138.33667 32026 ft 358 kts 261°
2026-04-22 10:53 34.90521 138.27672 32022 ft 360 kts 261°
2026-04-22 10:53 34.89644 138.21671 32011 ft 360 kts 261°
2026-04-22 10:54 34.88766 138.15696 32016 ft 360 kts 261°
2026-04-22 10:54 34.87880 138.09681 32018 ft 360 kts 261°
2026-04-22 10:55 34.86991 138.03671 32016 ft 361 kts 261°
2026-04-22 10:55 34.86096 137.97652 32009 ft 361 kts 261°
2026-04-22 10:56 34.85206 137.91678 32006 ft 360 kts 261°
2026-04-22 10:56 34.84310 137.85678 32003 ft 360 kts 261°
2026-04-22 10:57 34.83409 137.79675 31988 ft 360 kts 261°
2026-04-22 10:57 34.82513 137.73722 31990 ft 359 kts 261°
2026-04-22 10:58 34.81608 137.67728 31998 ft 360 kts 261°
2026-04-22 10:58 34.80699 137.61732 31990 ft 360 kts 261°
2026-04-22 10:59 34.79787 137.55738 31976 ft 360 kts 261°
2026-04-22 10:59 34.78875 137.49760 31969 ft 359 kts 261°
2026-04-22 11:00 34.77969 137.43826 31992 ft 358 kts 261°
2026-04-22 11:00 34.77046 137.37841 31978 ft 359 kts 261°
2026-04-22 11:01 34.76124 137.31860 31979 ft 359 kts 261°
2026-04-22 11:01 34.75206 137.25922 31974 ft 359 kts 261°
2026-04-22 11:02 34.74278 137.19945 31972 ft 360 kts 261°
2026-04-22 11:02 34.73347 137.13967 31969 ft 360 kts 261°
2026-04-22 11:03 34.72415 137.07992 31971 ft 360 kts 261°
2026-04-22 11:03 34.71478 137.02018 31977 ft 360 kts 261°
2026-04-22 11:03 34.70799 136.99092 31965 ft 364 kts 249°
2026-04-22 11:04 34.69582 136.96379 31971 ft 367 kts 243°
2026-04-22 11:04 34.66194 136.91709 31973 ft 376 kts 226°
2026-04-22 11:05 34.61999 136.87856 31971 ft 379 kts 225°
2026-04-22 11:05 34.57773 136.84020 31983 ft 380 kts 225°
2026-04-22 11:06 34.53572 136.80173 31984 ft 381 kts 225°
2026-04-22 11:06 34.49342 136.76284 31977 ft 382 kts 225°
2026-04-22 11:07 34.45105 136.72387 32000 ft 382 kts 225°
2026-04-22 11:07 34.40853 136.68483 32001 ft 383 kts 225°
2026-04-22 11:08 34.36627 136.64607 31985 ft 382 kts 226°
2026-04-22 11:08 34.32398 136.60733 31985 ft 380 kts 226°
2026-04-22 11:09 34.28213 136.56872 31987 ft 376 kts 226°
2026-04-22 11:09 34.24094 136.52989 31992 ft 375 kts 226°
2026-04-22 11:10 34.20001 136.49141 31991 ft 375 kts 226°
2026-04-22 11:10 34.15866 136.45264 32003 ft 376 kts 226°
2026-04-22 11:11 34.11720 136.41383 31999 ft 378 kts 226°
2026-04-22 11:11 34.07275 136.37848 32008 ft 389 kts 217°
2026-04-22 11:12 34.02443 136.34830 31969 ft 390 kts 217°
2026-04-22 11:12 33.97653 136.31842 31991 ft 390 kts 217°
2026-04-22 11:13 33.92843 136.28824 31997 ft 389 kts 217°
2026-04-22 11:13 33.88051 136.25811 31999 ft 388 kts 217°
2026-04-22 11:14 33.83274 136.22808 31999 ft 387 kts 217°
2026-04-22 11:14 33.78497 136.19808 31996 ft 386 kts 217°
2026-04-22 11:15 33.73747 136.16828 31980 ft 384 kts 216°
2026-04-22 11:15 33.69006 136.13858 31989 ft 384 kts 216°
2026-04-22 11:16 33.64299 136.10913 31994 ft 383 kts 216°
2026-04-22 11:16 33.59557 136.07948 31992 ft 384 kts 216°
2026-04-22 11:17 33.54809 136.04984 31993 ft 384 kts 216°
2026-04-22 11:17 33.50091 136.02043 31974 ft 385 kts 216°
2026-04-22 11:18 33.45339 135.99084 31989 ft 385 kts 216°
2026-04-22 11:18 33.40571 135.96117 31983 ft 386 kts 215°
2026-04-22 11:19 33.36605 135.93654 31993 ft 386 kts 215°
2026-04-22 11:19 33.31026 135.90195 31989 ft 387 kts 215°
2026-04-22 11:20 33.27051 135.87733 31990 ft 387 kts 215°
2026-04-22 11:20 33.22266 135.84770 31973 ft 387 kts 214°
2026-04-22 11:21 33.17511 135.81832 31982 ft 387 kts 214°
2026-04-22 11:21 33.12715 135.78872 31990 ft 387 kts 214°
2026-04-22 11:22 33.07904 135.75906 31994 ft 388 kts 214°
2026-04-22 11:22 33.03132 135.72968 31994 ft 388 kts 214°
2026-04-22 11:23 32.98333 135.70016 31993 ft 388 kts 214°
2026-04-22 11:23 32.93529 135.67065 31982 ft 388 kts 214°
2026-04-22 11:24 32.88733 135.64123 31994 ft 388 kts 214°
2026-04-22 11:24 32.83932 135.61181 31992 ft 388 kts 214°
2026-04-22 11:25 32.79129 135.58242 31994 ft 388 kts 213°
2026-04-22 11:25 32.74323 135.55304 31992 ft 388 kts 213°
2026-04-22 11:26 32.69509 135.52365 31983 ft 389 kts 213°
2026-04-22 11:26 32.64718 135.49443 31996 ft 389 kts 213°
2026-04-22 11:27 32.59899 135.46508 31993 ft 390 kts 213°
2026-04-22 11:27 32.55069 135.43570 31991 ft 390 kts 213°
2026-04-22 11:28 32.50230 135.40630 31998 ft 391 kts 213°
2026-04-22 11:28 32.45382 135.37688 31986 ft 391 kts 213°
2026-04-22 11:29 32.40568 135.34771 31985 ft 391 kts 213°
2026-04-22 11:29 32.35719 135.31835 31994 ft 391 kts 213°
2026-04-22 11:30 32.30872 135.28904 31994 ft 391 kts 213°
2026-04-22 11:30 32.26020 135.25974 31995 ft 392 kts 213°
2026-04-22 11:31 32.21190 135.23060 31993 ft 392 kts 213°
2026-04-22 11:31 32.16332 135.20132 31976 ft 392 kts 213°
2026-04-22 11:32 32.11509 135.17144 31985 ft 387 kts 219°
2026-04-22 11:32 32.07455 135.13096 31985 ft 378 kts 233°
2026-04-22 11:33 32.04231 135.08228 31989 ft 376 kts 236°
2026-04-22 11:33 32.01056 135.03316 31992 ft 377 kts 236°
2026-04-22 11:34 31.97880 134.98429 31995 ft 378 kts 236°
2026-04-22 11:34 31.94663 134.93502 31993 ft 379 kts 236°
2026-04-22 11:35 31.91442 134.88585 31984 ft 379 kts 236°
2026-04-22 11:35 31.88212 134.83663 31990 ft 380 kts 236°
2026-04-22 11:36 31.84989 134.78757 31995 ft 381 kts 236°
2026-04-22 11:36 31.81741 134.73820 31993 ft 382 kts 236°
2026-04-22 11:37 31.78484 134.68876 31988 ft 382 kts 236°
2026-04-22 11:37 31.75228 134.63939 31990 ft 382 kts 236°
2026-04-22 11:38 31.71971 134.59007 31998 ft 382 kts 236°
2026-04-22 11:38 31.67107 134.51655 31977 ft 381 kts 236°
2026-04-22 11:39 31.63857 134.46750 31988 ft 380 kts 236°
2026-04-22 11:39 31.60601 134.41842 31995 ft 380 kts 236°
2026-04-22 11:40 31.57350 134.36948 31958 ft 380 kts 236°
2026-04-22 11:40 31.54108 134.32073 31976 ft 381 kts 236°
2026-04-22 11:41 31.50849 134.27178 31990 ft 381 kts 236°
2026-04-22 11:41 31.47581 134.22276 31989 ft 382 kts 236°
2026-04-22 11:42 31.44303 134.17366 31957 ft 382 kts 236°
2026-04-22 11:42 31.41022 134.12457 31979 ft 383 kts 236°
2026-04-22 11:43 31.37732 134.07543 31976 ft 383 kts 236°
2026-04-22 11:43 31.34437 134.02626 31989 ft 384 kts 236°
2026-04-22 11:44 31.31158 133.97738 31972 ft 384 kts 235°
2026-04-22 11:44 31.27854 133.92820 31968 ft 384 kts 235°
2026-04-22 11:45 31.24545 133.87902 31968 ft 384 kts 235°
2026-04-22 11:45 31.21259 133.83023 31951 ft 384 kts 235°
2026-04-22 11:46 31.17947 133.78111 31960 ft 384 kts 235°
2026-04-22 11:46 31.14627 133.73194 31964 ft 385 kts 235°
2026-04-22 11:47 31.11306 133.68281 31962 ft 385 kts 235°
2026-04-22 11:47 31.07999 133.63393 31945 ft 386 kts 235°
2026-04-22 11:48 31.04669 133.58478 31950 ft 386 kts 235°
2026-04-22 11:48 31.01332 133.53562 31955 ft 386 kts 235°
2026-04-22 11:49 30.97990 133.48640 31952 ft 387 kts 235°
2026-04-22 11:49 30.94671 133.43755 31941 ft 387 kts 235°
2026-04-22 11:50 30.91328 133.38842 31954 ft 387 kts 234°
2026-04-22 11:50 30.87984 133.33932 31947 ft 387 kts 234°
2026-04-22 11:51 30.84641 133.29029 31950 ft 386 kts 234°
2026-04-22 11:51 30.81297 133.24132 31940 ft 386 kts 234°
2026-04-22 11:52 30.77976 133.19274 31948 ft 385 kts 234°
2026-04-22 11:52 30.74632 133.14389 31942 ft 385 kts 234°
2026-04-22 11:53 30.71295 133.09519 31939 ft 385 kts 234°
2026-04-22 11:53 30.67976 133.04682 31938 ft 384 kts 235°
2026-04-22 11:54 30.64643 132.99829 31949 ft 384 kts 235°
2026-04-22 11:54 30.61304 132.94976 31940 ft 385 kts 235°
2026-04-22 11:55 30.57962 132.90123 31939 ft 384 kts 235°
2026-04-22 11:55 30.54617 132.85272 31936 ft 384 kts 234°
2026-04-22 11:56 30.51273 132.80429 31940 ft 384 kts 234°
2026-04-22 11:56 30.47951 132.75622 31937 ft 384 kts 234°
2026-04-22 11:57 30.44609 132.70793 31914 ft 384 kts 235°
2026-04-22 11:57 30.41264 132.65966 31928 ft 384 kts 235°
2026-04-22 11:58 30.37918 132.61143 31940 ft 384 kts 235°
2026-04-22 11:58 30.34566 132.56317 31937 ft 385 kts 235°
2026-04-22 11:59 30.31231 132.51521 31919 ft 385 kts 235°
2026-04-22 11:59 30.27870 132.46694 31932 ft 385 kts 235°
2026-04-22 12:00 30.24506 132.41869 31934 ft 385 kts 235°
2026-04-22 12:00 30.21126 132.37027 31940 ft 386 kts 235°
2026-04-22 12:01 30.17743 132.32186 31903 ft 386 kts 235°
2026-04-22 12:01 30.14389 132.27392 31919 ft 386 kts 235°
2026-04-22 12:02 30.11010 132.22568 31930 ft 386 kts 235°
2026-04-22 12:02 30.07621 132.17736 31940 ft 387 kts 235°
2026-04-22 12:03 30.04230 132.12906 31906 ft 387 kts 235°
2026-04-22 12:03 30.00859 132.08111 31919 ft 387 kts 235°
2026-04-22 12:04 29.97461 132.03283 31929 ft 387 kts 234°
2026-04-22 12:04 29.94057 131.98452 31935 ft 388 kts 235°
2026-04-22 12:05 29.90645 131.93616 31906 ft 389 kts 234°
2026-04-22 12:05 29.87225 131.88773 31919 ft 389 kts 234°
2026-04-22 12:06 29.83828 131.83968 31926 ft 389 kts 234°
2026-04-22 12:06 29.80361 131.79107 31921 ft 390 kts 234°
2026-04-22 12:07 29.76860 131.74371 31903 ft 391 kts 233°
2026-04-22 12:07 29.73320 131.69612 31920 ft 391 kts 233°
2026-04-22 12:08 29.69784 131.64851 31921 ft 391 kts 233°
2026-04-22 12:08 29.66247 131.60083 31917 ft 392 kts 233°
2026-04-22 12:09 29.63309 131.56124 31924 ft 392 kts 233°
2026-04-22 12:09 29.59171 131.50553 31920 ft 391 kts 233°
2026-04-22 12:10 29.55657 131.45828 31923 ft 391 kts 233°
2026-04-22 12:10 29.52693 131.41847 31920 ft 390 kts 233°
2026-04-22 12:11 29.49182 131.37137 31923 ft 390 kts 233°
2026-04-22 12:11 29.45642 131.32392 31920 ft 390 kts 233°
2026-04-22 12:12 29.42116 131.27673 31924 ft 390 kts 233°
2026-04-22 12:12 29.38609 131.22983 31924 ft 390 kts 233°
2026-04-22 12:13 29.35068 131.18255 31924 ft 390 kts 233°
2026-04-22 12:13 29.31527 131.13531 31919 ft 391 kts 233°
2026-04-22 12:14 29.27972 131.08795 31926 ft 392 kts 233°
2026-04-22 12:14 29.24429 131.04080 31928 ft 393 kts 233°
2026-04-22 12:15 29.20855 130.99328 31927 ft 393 kts 233°
2026-04-22 12:15 29.17274 130.94575 31926 ft 394 kts 233°
2026-04-22 12:16 29.13690 130.89822 31928 ft 394 kts 233°
2026-04-22 12:16 29.10124 130.85098 31921 ft 394 kts 233°
2026-04-22 12:17 29.06544 130.80362 31925 ft 393 kts 233°
2026-04-22 12:17 29.02961 130.75627 31913 ft 392 kts 233°
2026-04-22 12:18 28.99388 130.70911 31919 ft 392 kts 233°
2026-04-22 12:18 28.95815 130.66199 31925 ft 392 kts 233°
2026-04-22 12:19 28.92261 130.61519 31921 ft 393 kts 233°
2026-04-22 12:19 28.88679 130.56806 31909 ft 393 kts 232°
2026-04-22 12:20 28.85090 130.52090 31928 ft 393 kts 232°
2026-04-22 12:20 28.81498 130.47375 31924 ft 394 kts 232°
2026-04-22 12:21 28.77899 130.42658 31925 ft 394 kts 232°
2026-04-22 12:21 28.74302 130.37948 31908 ft 394 kts 232°
2026-04-22 12:22 28.70720 130.33263 31922 ft 394 kts 232°
2026-04-22 12:22 28.67122 130.28563 31928 ft 393 kts 232°
2026-04-22 12:23 28.63522 130.23864 31935 ft 393 kts 232°
2026-04-22 12:23 28.59925 130.19176 31925 ft 393 kts 232°
2026-04-22 12:24 28.56317 130.14478 31918 ft 393 kts 232°
2026-04-22 12:24 28.52715 130.09793 31922 ft 393 kts 232°
2026-04-22 12:25 28.49106 130.05105 31919 ft 393 kts 232°
2026-04-22 12:25 28.45513 130.00442 31919 ft 393 kts 232°
2026-04-22 12:26 28.41901 129.95761 31903 ft 394 kts 232°
2026-04-22 12:26 28.38305 129.91104 31915 ft 394 kts 232°
2026-04-22 12:27 28.34678 129.86413 31912 ft 395 kts 232°
2026-04-22 12:27 28.31045 129.81721 31913 ft 395 kts 232°
2026-04-22 12:28 28.27407 129.77026 31904 ft 396 kts 232°
2026-04-22 12:28 28.23792 129.72367 31918 ft 395 kts 232°
2026-04-22 12:29 28.20156 129.67686 31921 ft 395 kts 232°
2026-04-22 12:29 28.16510 129.62997 31920 ft 395 kts 232°
2026-04-22 12:30 28.11054 129.55989 31925 ft 395 kts 232°
2026-04-22 12:31 28.07445 129.51361 31929 ft 394 kts 232°
2026-04-22 12:31 28.03807 129.46700 31926 ft 394 kts 232°
2026-04-22 12:32 28.00171 129.42047 31926 ft 394 kts 232°
2026-04-22 12:32 27.94723 129.35085 31921 ft 394 kts 232°
2026-04-22 12:33 27.91086 129.30443 31926 ft 394 kts 232°
2026-04-22 12:33 27.87444 129.25800 31926 ft 395 kts 232°
2026-04-22 12:34 27.83798 129.21156 31923 ft 395 kts 232°
2026-04-22 12:34 27.80149 129.16513 31923 ft 395 kts 232°
2026-04-22 12:35 27.76521 129.11903 31926 ft 395 kts 232°
2026-04-22 12:35 27.72866 129.07265 31926 ft 395 kts 232°
2026-04-22 12:36 27.69202 129.02620 31919 ft 395 kts 232°
2026-04-22 12:36 27.65548 128.97990 31921 ft 395 kts 232°
2026-04-22 12:37 27.61952 128.93442 31657 ft 382 kts 232°
2026-04-22 12:37 27.60201 128.91230 31399 ft 374 kts 232°
2026-04-22 12:37 27.58470 128.89042 31035 ft 371 kts 232°
2026-04-22 12:38 27.56754 128.86872 30676 ft 368 kts 232°
2026-04-22 12:38 27.55052 128.84722 30318 ft 366 kts 232°
2026-04-22 12:38 27.53386 128.82617 29965 ft 364 kts 232°
2026-04-22 12:38 27.51704 128.80494 29538 ft 361 kts 232°
2026-04-22 12:39 27.50035 128.78388 29134 ft 358 kts 232°
2026-04-22 12:39 27.46744 128.74239 28350 ft 352 kts 232°
2026-04-22 12:39 27.45121 128.72197 27983 ft 349 kts 232°
2026-04-22 12:40 27.43530 128.70152 27614 ft 344 kts 235°
2026-04-22 12:40 27.42209 128.67936 27295 ft 338 kts 242°
2026-04-22 12:40 27.41020 128.65661 26936 ft 335 kts 242°
2026-04-22 12:40 27.39846 128.63401 26586 ft 333 kts 242°
2026-04-22 12:41 27.38683 128.61162 26232 ft 331 kts 242°
2026-04-22 12:41 27.37521 128.58933 25875 ft 329 kts 242°
2026-04-22 12:41 27.36378 128.56748 25524 ft 327 kts 242°
2026-04-22 12:41 27.35225 128.54550 25181 ft 325 kts 242°
2026-04-22 12:42 27.34073 128.52356 24827 ft 324 kts 242°
2026-04-22 12:42 27.32923 128.50171 24479 ft 322 kts 242°
2026-04-22 12:42 27.31783 128.48005 24105 ft 322 kts 242°
2026-04-22 12:42 27.30646 128.45848 23772 ft 320 kts 242°
2026-04-22 12:43 27.29511 128.43694 23392 ft 319 kts 242°
2026-04-22 12:43 27.28380 128.41550 23013 ft 318 kts 241°
2026-04-22 12:43 27.27266 128.39440 22645 ft 316 kts 241°
2026-04-22 12:43 27.26150 128.37328 22288 ft 313 kts 241°
2026-04-22 12:44 27.25040 128.35227 21942 ft 311 kts 241°
2026-04-22 12:44 27.23937 128.33140 21603 ft 309 kts 241°
2026-04-22 12:44 27.22841 128.31066 21269 ft 307 kts 241°
2026-04-22 12:44 27.21752 128.29008 20936 ft 305 kts 241°
2026-04-22 12:45 27.20670 128.26963 20603 ft 303 kts 241°
2026-04-22 12:45 27.19592 128.24928 20278 ft 302 kts 241°
2026-04-22 12:45 27.18519 128.22902 19952 ft 301 kts 240°
2026-04-22 12:45 27.17465 128.20914 19634 ft 299 kts 240°
2026-04-22 12:46 27.16401 128.18906 19301 ft 299 kts 240°
2026-04-22 12:46 27.15341 128.16906 18959 ft 298 kts 240°
2026-04-22 12:46 27.14279 128.14905 18636 ft 298 kts 240°
2026-04-22 12:46 27.13216 128.12904 18297 ft 298 kts 240°
2026-04-22 12:47 27.12150 128.10900 17920 ft 298 kts 240°
2026-04-22 12:47 27.11081 128.08897 17479 ft 301 kts 240°
2026-04-22 12:47 27.09996 128.06873 17063 ft 304 kts 240°
2026-04-22 12:47 27.08905 128.04840 16638 ft 305 kts 240°
2026-04-22 12:48 27.07811 128.02800 16212 ft 305 kts 240°
2026-04-22 12:48 27.06712 128.00753 15789 ft 306 kts 240°
2026-04-22 12:48 27.05615 127.98708 15363 ft 307 kts 240°
2026-04-22 12:48 27.04514 127.96656 14959 ft 305 kts 240°
2026-04-22 12:49 27.03428 127.94633 14516 ft 299 kts 240°
2026-04-22 12:49 27.02365 127.92658 14092 ft 293 kts 240°
2026-04-22 12:49 27.01250 127.90811 13695 ft 289 kts 229°
2026-04-22 12:49 26.99684 127.89436 13323 ft 287 kts 213°
2026-04-22 12:50 26.97915 127.88387 12938 ft 286 kts 211°
2026-04-22 12:50 26.96136 127.87390 12548 ft 286 kts 210°
2026-04-22 12:50 26.94353 127.86399 12149 ft 285 kts 210°
2026-04-22 12:50 26.92580 127.85408 11756 ft 285 kts 210°
2026-04-22 12:51 26.90809 127.84412 11361 ft 284 kts 210°
2026-04-22 12:51 26.89049 127.83418 10981 ft 283 kts 210°
2026-04-22 12:51 26.87297 127.82426 10589 ft 282 kts 210°
2026-04-22 12:51 26.85566 127.81444 10199 ft 276 kts 210°
2026-04-22 12:52 26.83886 127.80490 9814 ft 270 kts 211°
2026-04-22 12:52 26.82227 127.79547 9396 ft 265 kts 210°
2026-04-22 12:52 26.80600 127.78621 9009 ft 260 kts 210°
2026-04-22 12:52 26.78995 127.77708 8651 ft 258 kts 210°
2026-04-22 12:53 26.77394 127.76797 8296 ft 258 kts 210°
2026-04-22 12:53 26.75786 127.75883 7941 ft 258 kts 210°
2026-04-22 12:53 26.74182 127.74970 7578 ft 258 kts 210°
2026-04-22 12:53 26.72600 127.74071 7227 ft 258 kts 210°
2026-04-22 12:54 26.71005 127.73165 6925 ft 257 kts 210°
2026-04-22 12:54 26.69415 127.72263 6574 ft 256 kts 210°
2026-04-22 12:54 26.67829 127.71364 6193 ft 254 kts 210°
2026-04-22 12:54 26.66267 127.70479 5819 ft 249 kts 210°
2026-04-22 12:55 26.65231 127.69894 5554 ft 245 kts 210°
2026-04-22 12:55 26.63231 127.68762 5112 ft 242 kts 210°
2026-04-22 12:55 26.61732 127.67913 4768 ft 241 kts 210°
2026-04-22 12:55 26.60233 127.67065 4413 ft 241 kts 210°
2026-04-22 12:56 26.58737 127.66219 4078 ft 241 kts 210°
2026-04-22 12:56 26.57230 127.65366 3722 ft 244 kts 209°
2026-04-22 12:56 26.55707 127.64504 3386 ft 246 kts 209°
2026-04-22 12:56 26.54695 127.63933 3147 ft 247 kts 209°
2026-04-22 12:57 26.53155 127.63062 2796 ft 249 kts 208°
2026-04-22 12:57 26.51085 127.61893 2299 ft 249 kts 207°
2026-04-22 12:57 26.49483 127.61269 2050 ft 247 kts 187°
2026-04-22 12:57 26.47795 127.61269 1919 ft 240 kts 178°
2026-04-22 12:58 26.46155 127.61426 1817 ft 234 kts 178°
2026-04-22 12:58 26.44568 127.61595 1718 ft 225 kts 178°
2026-04-22 12:58 26.43549 127.61702 1666 ft 218 kts 179°
2026-04-22 12:58 26.42072 127.61852 1581 ft 208 kts 179°
2026-04-22 12:59 26.40206 127.62033 1486 ft 195 kts 179°
2026-04-22 12:59 26.39331 127.62116 1446 ft 186 kts 179°
2026-04-22 12:59 26.38052 127.62235 1392 ft 183 kts 179°
2026-04-22 12:59 26.36773 127.62345 1302 ft 186 kts 177°
2026-04-22 13:00 26.35494 127.62463 1219 ft 181 kts 177°
2026-04-22 13:00 26.34279 127.62577 1217 ft 169 kts 178°
2026-04-22 13:00 26.33140 127.62643 1210 ft 162 kts 180°
2026-04-22 13:00 26.32016 127.62694 1217 ft 161 kts 180°
2026-04-22 13:01 26.30912 127.62745 1171 ft 157 kts 180°
2026-04-22 13:01 26.29847 127.62794 1173 ft 149 kts 181°
2026-04-22 13:01 26.28822 127.62842 1179 ft 146 kts 181°
2026-04-22 13:01 26.27814 127.62888 1187 ft 145 kts 181°
2026-04-22 13:02 26.26483 127.62951 1214 ft 141 kts 181°
2026-04-22 13:02 26.25836 127.62982 1077 ft 141 kts 181°
2026-04-22 13:02 26.24846 127.63028 901 ft 139 kts 180°
2026-04-22 13:02 26.23899 127.63072 746 ft 137 kts 180°
2026-04-22 13:03 26.22943 127.63118 562 ft 136 kts 180°
2026-04-22 13:03 26.22008 127.63161 424 ft 134 kts 179°
2026-04-22 13:03 26.21075 127.63216 252 ft 134 kts 179°
2026-04-22 13:03 26.20144 127.63252 60 ft 134 kts 179°
2026-04-22 13:04 26.19300 127.63289 27 ft 97 kts 177°
2026-04-22 13:04 26.18841 127.63326 29 ft 36 kts 164°
2026-04-22 13:04 26.18672 127.63417 27 ft 14 kts 147°
2026-04-22 13:04 26.18637 127.63499 28 ft 13 kts 63°
2026-04-22 13:05 26.18722 127.63510 28 ft 13 kts 353°
2026-04-22 13:05 26.18812 127.63505 27 ft 14 kts 358°
2026-04-22 13:05 26.18952 127.63497 27 ft 25 kts 357°
2026-04-22 13:05 26.19129 127.63489 27 ft 25 kts 358°
2026-04-22 13:06 26.19297 127.63481 27 ft 23 kts 358°
2026-04-22 13:06 26.19454 127.63474 28 ft 22 kts 357°
2026-04-22 13:06 26.19608 127.63466 28 ft 22 kts 357°
2026-04-22 13:06 26.19758 127.63458 28 ft 21 kts 357°
2026-04-22 13:07 26.19905 127.63451 28 ft 21 kts 358°
2026-04-22 13:07 26.20053 127.63446 28 ft 24 kts 358°
2026-04-22 13:07 26.20205 127.63439 27 ft 17 kts 358°
2026-04-22 13:07 26.20293 127.63461 27 ft 13 kts 59°
2026-04-22 13:08 26.20304 127.63560 27 ft 14 kts 88°
2026-04-22 13:08 26.20308 127.63686 27 ft 20 kts 88°
2026-04-22 13:08 26.20314 127.63864 27 ft 25 kts 88°
2026-04-22 13:08 26.20322 127.64052 27 ft 24 kts 85°
2026-04-22 13:09 26.20328 127.64230 27 ft 23 kts 88°
2026-04-22 13:09 26.20335 127.64402 28 ft 22 kts 88°
2026-04-22 13:09 26.20341 127.64570 27 ft 21 kts 87°
2026-04-22 13:09 26.20347 127.64692 27 ft 8 kts 87°
2026-04-22 13:10 26.20365 127.64747 27 ft 8 kts 46°
2026-04-22 13:10 26.20416 127.64756 27 ft 7 kts 355°
2026-04-22 13:10 26.20467 127.64753 27 ft 7 kts 358°
2026-04-22 13:10 26.20484 127.64764 27 ft 0 kts 51°
2026-04-22 13:11 26.20489 127.64774 27 ft 3 kts 68°
2026-04-22 13:11 26.20492 127.64817 27 ft 7 kts 87°
2026-04-22 13:11 26.20493 127.64832 27 ft 0 kts 87°